Preview of NWS' New Version of Forecast
This preview is not operational and should not be used for support decisions.
Latest weather observations around

Dalton, Dalton Municipal Airport (KDNN)

Using English Units (Switch to International System of Units)
Date/ Time (EDT) Wind (mph) Vis. (mi) Weather Sky Cond. Temp (°F) Rel. Humidity Wind Chill (°F) Heat Index (°F) Pressure Precip. (in)
Air Dwpt 6 hour Altimeter (inHg) Sea level (inHg) 1 hr 3 hr 6 hr
Max Min
May 15 14:35 SE 5 10 Clear CLR 81 64     58%   82 30        
May 15 12:15 S 3 10 Clear CLR 77 68     74%   78 30.04        
May 15 10:55 Calm 10 Clear CLR 75 68     78%   76 30.04        
May 15 02:15 Calm 10 Clear CLR 70 68     94%     30.01        
May 14 19:55 Calm 10 Clear CLR 81 72     74%   85 29.97        
May 14 07:15 Calm 10 Clear CLR 61 61     100%     30.08        
May 14 01:35 Calm 10 Clear CLR 64 64     100%     30.08        
May 13 23:55 Calm 10 Clear CLR 68 68     100%     30.1        
May 13 19:15 Calm 10 Clear CLR 86 63     46%   87 30.04        
May 13 13:55 NE 5 10 Clear CLR 86 63     46%   87 30.13        
May 12 19:55 Calm 10 Clear CLR 81 59     48%   81 30.1        
May 12 14:15 Calm 10 Partly Cloudy SCT065 86 57     38%   85 30.15        
May 12 06:35 Calm 7 Clear CLR 59 59     100%     30.16        
Notice The following observation data may not be complete
May 12 06:15   7 Clear CLR          %              
May 12 01:35 Calm 10 Clear CLR 64 63     94%     30.13        
May 11 22:55 Calm 10 Clear CLR 68 64     88%     30.12        
May 11 17:55 S 6 10 Clear CLR 86 61     43%   86 30.07        
Jun 12 08:35 Calm 10 Cloudy SCT024 BKN030 OVC040 73 72     94%   75 30.22        
Notice The following observation data may not be complete
Jun 12 05:15   10 Mostly Cloudy SCT049 BKN070          %              
Jun 12 01:55 Calm 10 Cloudy SCT046 OVC075 73 70     89%   75 30.17        
Notice The following observation data may not be complete
Jun 11 14:35   10 Mostly Cloudy SCT037 SCT050 BKN090          %              
Jun 11 10:15 SSE 5 10 Cloudy OVC019 75 70     83%   76 30.22        
Notice The following observation data may not be complete
Jun 11 09:55   10 Cloudy OVC017          %              
Jun 11 06:55 Calm 10 Clear CLR 63 63     100%     30.17        
Notice The following observation data may not be complete
Jun 11 03:35   10 Clear CLR          %              
Jun 10 22:15 Calm 10 Partly Cloudy SCT070 73 66     78%   74 30.11        
Jun 10 19:55 SSE 3 10 Partly Cloudy SCT060 81 61     51%   81 30.06        
Jun 10 18:55 SSE 3 10 Clear CLR 82 61     48%   83 30.05        
Notice The following observation data may not be complete
Jun 10 10:35   10 Clear CLR          %              
Jun 10 00:15 Calm 10 Clear CLR 63 63     100%     30.02        
Jun 09 23:55 Calm 10 Clear CLR 63 63     100%     30.02        
Notice The following observation data may not be complete
Jun 09 22:35   10 Clear CLR          %              
Jun 09 17:55 SSW 3 10 Clear CLR 81 54     39%   80 29.95        
Jun 09 17:15 S 5 10 Clear CLR 81 55     42%   81 29.95        
Jun 09 16:15 S 3 10 Partly Cloudy SCT070 81 55     42%   81 29.96        
Notice The following observation data may not be complete
Jun 09 15:15   10 Partly Cloudy SCT060          %              
Jun 09 14:15 Calm 10 Partly Cloudy SCT050 SCT060 77 57     50%   77 29.98        
Jun 09 11:55 S 3 10 Clear CLR 75 61     61%   75 30.01        
Jun 09 00:15 NW 5 10 Clear CLR 64 59     83%     29.92        
Jun 07 22:35 NNW 7 10 Clear CLR 66 55     68%     29.89        
Notice The following observation data may not be complete
Jun 07 20:35   10 Clear CLR          %              
Jun 07 18:55 N 9 10 Clear CLR 77 52     41%   76 29.84        
Jun 07 18:35 N 9 10 Clear CLR 77 52     41%   76 29.84        
Notice The following observation data may not be complete
Jun 07 15:15   10 Clear CLR          %              
Jun 07 11:55 NNE 6 10 Mostly Cloudy BKN049 72 55     57%   71 29.88        
Jun 06 09:15 Calm 10 Cloudy BKN007 OVC011 70 70     100%     29.84        
Jun 06 05:15 Calm 5 Fog/Mist BKN006 BKN010 BKN015 70 70     100%     29.81        
Notice The following observation data may not be complete
Jun 06 04:55   4 Fog/Mist SCT001 BKN006 OVC013          %              
Jun 06 04:35 Calm 0.75 Fog/Mist OVC001 70 70     100%     29.81        
Jun 05 16:15 Calm 10 Mostly Cloudy SCT060 BKN070 72 70     94%   73 29.8        
Jun 05 15:55 NNW 7 10 Cloudy SCT015 BKN038 OVC060 73 70     89%   75 29.8